EN

Hourly Weather Dzierszyn

Today, 30 October, Friday

Time Temperature Precipitation Wind Pressure Humidity
00:00 +6°C° 0 mm 4 mps 743 mmHg 83%
01:00 +6°C° 0 mm 4 mps 743 mmHg 85%
02:00 +5°C° 0 mm 3 mps 743 mmHg 87%
03:00 +5°C° 0 mm 3 mps 743 mmHg 88%
04:00 +4°C° 0 mm 3 mps 743 mmHg 89%
05:00 +4°C° 0 mm 3 mps 744 mmHg 89%
06:00 +4°C° 0 mm 3 mps 744 mmHg 88%
07:00 +4°C° 0 mm 3 mps 744 mmHg 88%
08:00 +7°C° 0 mm 3 mps 744 mmHg 83%
09:00 +8°C° 0 mm 3 mps 744 mmHg 77%
10:00 +8°C° 0 mm 4 mps 744 mmHg 72%
11:00 +8°C° 0 mm 4 mps 743 mmHg 73%
12:00 +10°C° 0 mm 4 mps 743 mmHg 73%
13:00 +10°C° 0 mm 4 mps 742 mmHg 74%
14:00 +8°C° 0.7 mm 4 mps 742 mmHg 80%
15:00 +8°C° 0.7 mm 4 mps 742 mmHg 86%
16:00 +8°C° 0.7 mm 3 mps 741 mmHg 92%
17:00 +8°C° 1.1 mm 4 mps 741 mmHg 93%
18:00 +8°C° 1.1 mm 4 mps 741 mmHg 94%
19:00 +8°C° 1.1 mm 4 mps 741 mmHg 95%
20:00 +10°C° 0.6 mm 4 mps 741 mmHg 94%
21:00 +9°C° 0.6 mm 5 mps 741 mmHg 94%
22:00 +10°C° 0.6 mm 5 mps 741 mmHg 93%
23:00 +10°C° 0.4 mm 5 mps 741 mmHg 93%

Tomorrow, 31 October, Saturday

Time Temperature Precipitation Wind Pressure Humidity
00:00 +10°C° 0.4 mm 4 mps 742 mmHg 93%
01:00 +10°C° 0.4 mm 3 mps 742 mmHg 94%
02:00 +9°C° 0.2 mm 3 mps 742 mmHg 93%
03:00 +9°C° 0.2 mm 3 mps 743 mmHg 93%
04:00 +9°C° 0.2 mm 3 mps 743 mmHg 93%
05:00 +9°C° 0 mm 2 mps 744 mmHg 93%
06:00 +8°C° 0 mm 2 mps 744 mmHg 93%
07:00 +8°C° 0 mm 2 mps 745 mmHg 93%
08:00 +9°C° 0 mm 2 mps 745 mmHg 89%
09:00 +9°C° 0 mm 2 mps 746 mmHg 85%
10:00 +10°C° 0 mm 2 mps 746 mmHg 81%
11:00 +10°C° 0 mm 2 mps 746 mmHg 77%
12:00 +12°C° 0 mm 2 mps 746 mmHg 72%
13:00 +12°C° 0 mm 2 mps 746 mmHg 68%
14:00 +12°C° 0 mm 2 mps 746 mmHg 70%
15:00 +10°C° 0 mm 2 mps 746 mmHg 73%
16:00 +10°C° 0 mm 1 mps 746 mmHg 75%
17:00 +10°C° 0 mm 1 mps 747 mmHg 79%
18:00 +9°C° 0 mm 1 mps 747 mmHg 82%
19:00 +8°C° 0 mm 1 mps 747 mmHg 85%
20:00 +8°C° 0 mm 1 mps 747 mmHg 87%
21:00 +7°C° 0 mm 1 mps 747 mmHg 89%
22:00 +7°C° 0 mm 1 mps 747 mmHg 91%
23:00 +7°C° 0 mm 1 mps 747 mmHg 92%

Day after tomorrow, 1 November, Sunday

Time Temperature Precipitation Wind Pressure Humidity
00:00 +5°C° 0 mm 2 mps 747 mmHg 92%
01:00 +5°C° 0 mm 2 mps 747 mmHg 93%
02:00 +5°C° 0 mm 2 mps 747 mmHg 93%
03:00 +5°C° 0 mm 2 mps 746 mmHg 94%
04:00 +4°C° 0 mm 2 mps 746 mmHg 94%
05:00 +4°C° 0 mm 2 mps 746 mmHg 94%
06:00 +4°C° 0 mm 2 mps 746 mmHg 94%
07:00 +4°C° 0 mm 2 mps 746 mmHg 94%
08:00 +5°C° 0 mm 3 mps 746 mmHg 88%
09:00 +7°C° 0 mm 3 mps 746 mmHg 83%
10:00 +8°C° 0 mm 3 mps 745 mmHg 77%
11:00 +9°C° 0 mm 3 mps 745 mmHg 73%
12:00 +10°C° 0 mm 3 mps 745 mmHg 69%
13:00 +11°C° 0 mm 3 mps 745 mmHg 65%
14:00 +10°C° 0 mm 3 mps 744 mmHg 69%
15:00 +10°C° 0 mm 2 mps 744 mmHg 72%
16:00 +9°C° 0 mm 2 mps 743 mmHg 76%
17:00 +9°C° 0 mm 2 mps 743 mmHg 77%
18:00 +8°C° 0 mm 2 mps 743 mmHg 78%
19:00 +8°C° 0 mm 2 mps 743 mmHg 79%
20:00 +8°C° 0 mm 2 mps 743 mmHg 80%
21:00 +8°C° 0 mm 2 mps 743 mmHg 81%
22:00 +9°C° 0 mm 2 mps 743 mmHg 82%
23:00 +9°C° 0.4 mm 3 mps 743 mmHg 86%

2 November, Monday

Time Temperature Precipitation Wind Pressure Humidity
00:00 +9°C° 0.4 mm 3 mps 742 mmHg 89%
01:00 +9°C° 0.4 mm 3 mps 742 mmHg 92%
02:00 +9°C° 0.5 mm 3 mps 742 mmHg 93%
03:00 +10°C° 0.5 mm 3 mps 742 mmHg 93%
04:00 +10°C° 0.5 mm 3 mps 742 mmHg 94%
05:00 +10°C° 0 mm 3 mps 742 mmHg 94%
06:00 +10°C° 0 mm 3 mps 742 mmHg 94%
07:00 +10°C° 0 mm 3 mps 742 mmHg 94%
08:00 +11°C° 0 mm 3 mps 742 mmHg 90%
09:00 +12°C° 0 mm 4 mps 742 mmHg 86%
10:00 +13°C° 0 mm 4 mps 742 mmHg 82%
11:00 +13°C° 0.1 mm 4 mps 742 mmHg 82%
12:00 +13°C° 0.1 mm 4 mps 741 mmHg 83%
13:00 +13°C° 0.1 mm 4 mps 741 mmHg 83%
14:00 +13°C° 0 mm 4 mps 741 mmHg 83%
15:00 +13°C° 0 mm 4 mps 741 mmHg 84%
16:00 +13°C° 0 mm 4 mps 741 mmHg 85%
17:00 +13°C° 0 mm 4 mps 742 mmHg 86%
18:00 +12°C° 0 mm 4 mps 742 mmHg 88%
19:00 +12°C° 0 mm 4 mps 742 mmHg 90%
20:00 +12°C° 0 mm 4 mps 742 mmHg 90%
21:00 +12°C° 0 mm 3 mps 742 mmHg 91%
22:00 +12°C° 0 mm 3 mps 743 mmHg 91%
23:00 +12°C° 0 mm 3 mps 743 mmHg 91%

3 November, Tuesday

Time Temperature Precipitation Wind Pressure Humidity
00:00 +12°C° 0 mm 3 mps 743 mmHg 90%
01:00 +12°C° 0 mm 3 mps 743 mmHg 90%
02:00 +12°C° 0 mm 3 mps 743 mmHg 89%
03:00 +12°C° 0 mm 3 mps 743 mmHg 89%
04:00 +12°C° 0 mm 3 mps 743 mmHg 89%
05:00 +12°C° 0 mm 3 mps 744 mmHg 88%
06:00 +12°C° 0 mm 3 mps 744 mmHg 88%
07:00 +13°C° 0 mm 2 mps 744 mmHg 87%
08:00 +14°C° 0 mm 2 mps 745 mmHg 82%
09:00 +16°C° 0 mm 2 mps 745 mmHg 78%
10:00 +17°C° 0 mm 2 mps 745 mmHg 73%
11:00 +18°C° 0 mm 2 mps 745 mmHg 72%
12:00 +18°C° 0 mm 2 mps 746 mmHg 71%
13:00 +19°C° 0 mm 2 mps 746 mmHg 70%
14:00 +18°C° 0 mm 2 mps 746 mmHg 75%
15:00 +18°C° 0 mm 1 mps 746 mmHg 80%
16:00 +16°C° 0 mm 1 mps 746 mmHg 85%
17:00 +15°C° 0 mm 1 mps 746 mmHg 86%
18:00 +15°C° 0 mm 1 mps 746 mmHg 88%
19:00 +14°C° 0 mm 2 mps 746 mmHg 90%
20:00 +14°C° 0 mm 2 mps 746 mmHg 91%
21:00 +14°C° 0 mm 2 mps 746 mmHg 92%
22:00 +14°C° 0 mm 2 mps 746 mmHg 93%
23:00 +12°C° 0 mm 3 mps 746 mmHg 93%

4 November, Wednesday

Time Temperature Precipitation Wind Pressure Humidity
00:00 +12°C° 0 mm 3 mps 746 mmHg 93%
01:00 +12°C° 0 mm 3 mps 746 mmHg 93%
02:00 +13°C° 0 mm 2 mps 746 mmHg 93%
03:00 +12°C° 0 mm 2 mps 746 mmHg 93%
04:00 +12°C° 0 mm 2 mps 745 mmHg 93%
05:00 +12°C° 0 mm 2 mps 746 mmHg 93%
06:00 +12°C° 0 mm 2 mps 746 mmHg 93%
07:00 +12°C° 0 mm 2 mps 746 mmHg 92%
08:00 +13°C° 0 mm 2 mps 746 mmHg 88%
09:00 +14°C° 0 mm 2 mps 746 mmHg 83%
10:00 +15°C° 0 mm 2 mps 746 mmHg 78%
11:00 +15°C° 0 mm 2 mps 746 mmHg 76%
12:00 +16°C° 0 mm 2 mps 746 mmHg 74%
13:00 +16°C° 0 mm 2 mps 746 mmHg 73%
14:00 +16°C° 0 mm 2 mps 746 mmHg 75%
15:00 +15°C° 0 mm 2 mps 746 mmHg 78%
16:00 +15°C° 0 mm 2 mps 746 mmHg 81%
17:00 +14°C° 0 mm 2 mps 746 mmHg 84%
18:00 +14°C° 0 mm 2 mps 747 mmHg 86%
19:00 +13°C° 0 mm 2 mps 747 mmHg 89%
20:00 +13°C° 0 mm 2 mps 747 mmHg 90%
21:00 +13°C° 0 mm 2 mps 748 mmHg 90%
22:00 +13°C° 0 mm 2 mps 748 mmHg 91%
23:00 +12°C° 0 mm 3 mps 748 mmHg 91%
Show more